Tracking 29059 objects as of 18-Jun-2024
HD Live streaming from Space Station
objects crossing your sky now

STARLINK-3333

Track STARLINK-3333 now!
10-day predictions
STARLINK-3333 is classified as:


NORAD ID: 50805
Int'l Code: 2022-001C
Perigee: 545.8 km
Apogee: 547.9 km
Inclination: 53.2 °
Period: 95.4 minutes
Semi major axis: 6917 km
RCS: Unknown
Launch date: January 6, 2022
Source: United States (US)
Launch site: AIR FORCE EASTERN TEST RANGE (AFETR)
Your satellite tracking list
Your tracking list is empty




NASA's NSSDC Master Catalog

Two Line Element Set (TLE):
1 50805U 22001C   24169.54344803 -.00000402  00000-0 -71825-5 0  9992
2 50805  53.2183 107.9560 0001507  84.0202 276.0962 15.08840326135412
Source of the keplerian elements: AFSPC